Content
SEND FEEDBACK

Daily
Averages
Monthly
Summary
Thailand

PHUKET, THAILAND


Home > Asia > Thailand
Elevation: 10 meters     Latitude: 08 07N     Longitude: 098 19E

WEATHER
 
SELECT A DAY
Number of Records: 231,916;   Date Range: 7/1/96 - 9/28/14
 
SHARE

PRINT THIS DATA

[ ← Previous Day ]
WEATHER ALMANAC - 3 FEBRUARY, 2013
[ Next Day → ]
[ °F ]   °C
Weather ElementAverageHighLow
Temperature28.3 °C32.8 °C (1:00 pm)24 °C (6:30 am)
Dewpoint21.2 °C23 °C (8:00 pm)20 °C (12:30 am)
Humidity65.3 %83 % (6:30 am)43 % (1:00 pm)
Barometer1010.8 hPa1013.2 hPa (9:00 am)1009.1 hPa (4:00 am)
Wind Speed9.5 km/h20.4 km/h (9:30 am)
Weather ElementAverage
Visibility8.9 km
Wind DirectionE (90.4 °)

Weather ElementTotal
Precipitation---
Cooling Degree Days10.1 (Base 18.3)
Growing Degree Days18.4 (Base 10)
Averaged from 48 records on 3 February, 2013
WEATHER CONDITIONS BREAKOUT
WIND DIRECTION BREAKOUT
WEATHER BY HOUR - 3 FEBRUARY, 2013
[ °F ]   °C
Local TimeTemperatureDewpointHumidityBarometerVisibilityWind DirectionWind SpeedGust SpeedPrecipitationEventsConditions
12:30 AM27 °C20 °C65 %1012.2 hPa9 kmEast (100°)9.3 km/hMostly Cloudy
1:00 AM27.2 °C20.6 °C58 %1010.2 hPa9.7 kmEast (90°)13 km/hMist
1:00 AM28 °C20 °C62 %1011.2 hPa8 kmEast (80°)16.7 km/hMostly Cloudy
1:30 AM28 °C20 °C62 %1011.2 hPa8 kmEast (100°)13 km/hMostly Cloudy
2:00 AM27 °C20 °C65 %1011.2 hPa8 kmEast (90°)14.8 km/hMostly Cloudy
2:30 AM27 °C20 °C65 %1010.2 hPa8 kmEast (80°)14.8 km/hMostly Cloudy
3:00 AM27 °C20 °C65 %1010.2 hPa8 kmEast (90°)11.1 km/hMostly Cloudy
3:30 AM27 °C20 °C65 %1010.2 hPa8 kmEast (90°)11.1 km/hMostly Cloudy
4:00 AM27 °C20 °C65 %1009.1 hPa8 kmEast (100°)13 km/hMostly Cloudy
4:30 AM27 °C20 °C65 %1009.1 hPa8 kmEast (90°)13 km/hMostly Cloudy
5:30 AM27 °C20 °C65 %1009.1 hPa8 kmEast (90°)13 km/hMostly Cloudy
6:00 AM25 °C21 °C78 %1010.2 hPa8 kmESE (120°)5.6 km/hMostly Cloudy
6:30 AM24 °C21 °C83 %1010.2 hPa8 kmCalmMostly Cloudy
7:00 AM24.4 °C21.7 °C80 %1009.8 hPa8 kmENE (60°)5.6 km/hMist
7:00 AM25 °C21 °C78 %1011.2 hPa8 kmVariable3.7 km/hMostly Cloudy
7:30 AM25 °C21 °C78 %1011.2 hPa9 kmCalmMostly Cloudy
8:00 AM27 °C21 °C70 %1012.2 hPa9 kmENE (70°)5.6 km/hMostly Cloudy
9:00 AM28 °C22 °C70 %1013.2 hPa9 kmENE (70°)18.5 km/hMostly Cloudy
9:30 AM29 °C22 °C66 %1013.2 hPa9 kmENE (70°)20.4 km/hMostly Cloudy
10:00 AM30 °C22 °C62 %1013.2 hPa9 kmEast (80°)14.8 km/hMostly Cloudy
10:30 AM30 °C21 °C58 %1013.2 hPa9 kmENE (60°)20.4 km/hMostly Cloudy
11:00 AM30 °C21 °C58 %1013.2 hPa9 kmENE (60°)18.5 km/hMostly Cloudy
11:30 AM30 °C21 °C58 %1013.2 hPa9 kmEast (80°)11.1 km/hMostly Cloudy
12:00 PM31 °C21 °C55 %1012.2 hPa9 kmENE (70°)16.7 km/hMostly Cloudy
12:30 PM30 °C21 °C58 %1011.2 hPa9 kmEast (80°)9.3 km/hMostly Cloudy
1:00 PM32.8 °C21.7 °C43 %1010.2 hPa9.7 kmEast (80°)5.6 km/hScattered Clouds
1:00 PM31 °C20 °C52 %1011.2 hPa9 kmEast (80°)16.7 km/hMostly Cloudy
1:30 PM31 °C20 °C52 %1010.2 hPa9 kmEast (90°)11.1 km/hMostly Cloudy
2:00 PM32 °C21 °C52 %1010.2 hPa9 kmEast (90°)11.1 km/hMostly Cloudy
2:30 PM32 °C21 °C52 %1009.1 hPa9 kmENE (70°)11.1 km/hMostly Cloudy
3:00 PM32 °C21 °C52 %1009.1 hPa9 kmEast (90°)14.8 km/hMostly Cloudy
3:30 PM32 °C21 °C52 %1009.1 hPa9 kmENE (70°)9.3 km/hMostly Cloudy
4:00 PM32 °C20 °C49 %1009.1 hPa9 kmENE (70°)9.3 km/hMostly Cloudy
4:30 PM32 °C21 °C52 %1009.1 hPa9 kmEast (80°)9.3 km/hMostly Cloudy
5:00 PM30 °C22 °C62 %1009.1 hPa9 kmVariable5.6 km/hMostly Cloudy
5:30 PM30 °C22 °C62 %1009.1 hPa9 kmWest (270°)13 km/hMostly Cloudy
6:00 PM29 °C22 °C66 %1009.1 hPa9 kmNW (310°)9.3 km/hMostly Cloudy
6:30 PM29 °C22 °C66 %1010.2 hPa8 kmWNW (290°)9.3 km/hMostly Cloudy
7:00 PM29 °C22 °C66 %1010.2 hPa8 kmWNW (290°)9.3 km/hMostly Cloudy
7:30 PM28 °C22 °C70 %1010.2 hPa8 kmNW (320°)7.4 km/hMostly Cloudy
8:00 PM28 °C23 °C74 %1011.2 hPa8 kmNW (320°)7.4 km/hMostly Cloudy
8:30 PM26 °C23 °C83 %1011.2 hPa10 kmCalmScattered Clouds
9:00 PM26 °C23 °C83 %1012.2 hPa10 kmCalmScattered Clouds
9:30 PM27 °C23 °C79 %1012.2 hPa10 kmCalmScattered Clouds
10:00 PM26 °C23 °C83 %1013.2 hPa10 kmCalmScattered Clouds
10:30 PM26 °C22 °C78 %1013.2 hPa10 kmCalmMostly Cloudy
11:00 PM26 °C22 °C78 %1013.2 hPa10 kmCalmMostly Cloudy
11:30 PM26 °C21 °C74 %1013.2 hPa10 kmCalmScattered Clouds
Hourly data recorded from VTSP, located 0 kilometers away from Phuket, Thailand







STORIES FROM OUR PARTNERS